STARLINK-34269 (64386 NORAD) Tracking and Keplerian Element Data

This shows tracking and keplerian element data for the satellite.

Feedback or suggestion? Click here.




ElementValue
Catalog64386
NameSTARLINK-34269
Epoch Orbit3031
Epoch Day354.19772112
Epoch Year2025
RAAN268.3776
Inclination42.9998
Eccentricity0.0001378
Argument of Perigee264.0131
Mean Anonmoly96.0564
Mean Motion15.2759524
Decay Rate0.00022841
L11 64386U 25127S 25354.19772112 .00022841 00000+0 83660-3 0 9995
L22 64386 42.9998 268.3776 0001378 264.0131 96.0564 15.27595240 30312



Live tracking and technical data element details for STARLINK-34269 (NORAD 64386). STARLINK-34269 can be tracked NOW for your location showing map with azimuth and elevation plus other details from your city location.







IsCatalogInMostPopularTable: catalog: 64386, numindb: 3
Update: records affected: 1



GetName: 64386 STARLINK-34269

Hit Count: updated at: Wed, 11 Feb 2026 15:08:24 GMT